Probability
0 0 0 1 3 4 3 1 0 1 2 3 3 4 5 6 6 5 4 2 1 1 1 2 2 1 0 1 2 2 2 1 0 0 0 0 0 0 0 0 0 0 0
0 0 0 1 3 5 4 2 1 1 2 3 3 3 4 4 5 5 4 3 2 2 2 2 2 1 0 0 1 1 1 1 0 0 0 0 0 0 0 0 0 0 0
0 0 1 2 4 6 6 4 3 2 3 3 3 3 3 3 4 4 3 3 3 3 3 2 2 1 0 0 0 0 0 0 0 0 0 0 0 0 0 0 0 0 0
1 1 1 2 5 7 6 5 4 4 4 3 3 4 3 3 3 3 3 3 3 3 3 3 2 1 0 0 0 0 0 0 0 0 0 0 0 0 0 0 0 0 0
3 2 1 2 5 6 6 5 6 6 6 4 4 4 4 3 3 4 4 4 3 2 3 3 2 2 1 1 0 0 0 0 0 0 0 0 0 0 0 0 0 0 0
3 3 3 3 5 6 6 5 6 8 9 6 4 4 4 4 3 5 6 5 3 2 2 1 1 2 2 2 1 1 0 0 0 0 0 0 0 0 0 0 0 0 0
1 2 3 3 5 6 6 5 6 9 10 7 4 3 4 4 5 6 7 5 3 1 1 0 0 1 1 2 2 2 1 0 0 0 0 0 0 0 0 0 0 0 0
0 1 2 2 3 5 6 6 6 8 9 7 4 4 4 6 9 9 7 4 3 1 0 0 0 0 0 1 2 3 2 1 0 0 0 0 0 0 0 0 1 1 1
0 0 1 2 3 4 6 6 6 7 7 6 4 4 5 8 11 10 7 4 3 2 1 1 0 0 0 0 1 2 2 1 0 0 0 0 0 0 0 0 1 1 1
0 0 2 3 3 4 6 6 6 6 5 4 3 3 4 6 8 7 5 4 3 4 3 2 1 0 0 0 0 1 1 0 0 0 0 0 0 0 1 1 1 1 0
0 1 2 3 3 3 4 5 4 4 3 1 1 1 2 3 4 4 3 2 3 4 4 3 2 0 0 0 0 0 0 0 0 0 0 0 0 1 3 4 3 2 1
0 1 2 1 1 1 2 3 3 2 1 0 0 0 1 1 1 1 1 1 2 4 4 3 1 0 0 0 0 0 0 0 0 0 0 0 0 1 4 6 6 5 4
1 2 1 0 0 0 0 1 2 1 0 0 0 0 0 0 0 0 0 0 2 3 3 2 2 1 0 0 0 0 0 0 0 0 0 0 0 1 4 6 7 7 9
3 2 1 0 0 0 0 1 1 1 0 0 0 0 0 0 0 0 0 1 2 3 3 3 2 1 0 0 0 0 0 0 0 0 0 0 0 1 3 6 7 8 10
3 2 1 0 0 0 0 0 0 0 0 0 0 0 0 0 0 0 0 1 2 2 3 3 2 1 0 0 0 0 0 0 0 0 0 0 0 1 3 5 6 7 9
2 2 1 0 0 0 0 0 0 0 0 0 0 0 0 0 0 0 0 0 1 1 1 2 1 0 0 0 0 0 0 0 0 0 0 0 0 1 2 4 5 6 7
1 1 0 0 0 0 0 0 0 0 0 0 0 0 0 0 0 0 0 0 0 0 0 0 0 0 0 0 0 0 0 0 0 0 0 0 0 0 1 3 5 7 7
0 0 0 0 0 0 0 0 0 0 0 0 0 0 0 0 0 0 0 0 0 0 0 0 0 0 0 0 0 0 0 0 0 0 0 0 0 0 0 1 4 7 9
0 0 0 0 0 0 0 0 0 0 0 0 0 1 0 0 0 0 0 0 0 0 0 0 0 0 0 0 0 0 0 0 0 0 0 0 0 0 0 0 2 5 7
1 0 0 0 0 0 0 0 0 0 0 0 0 0 0 0 0 0 0 0 0 0 0 0 0 0 0 0 0 0 0 0 0 0 0 0 0 0 0 0 0 2 3
2 1 1 2 1 0 0 0 0 0 0 0 0 0 0 0 0 0 0 0 0 0 0 0 0 0 0 0 0 0 0 0 0 0 0 0 0 0 0 0 0 0 1
2 2 2 3 2 1 0 0 0 0 0 0 0 0 0 0 0 0 0 0 0 0 0 0 0 0 0 0 0 0 0 0 0 0 0 0 0 0 0 0 0 0 0
3 3 3 3 2 1 0 0 0 0 0 0 0 0 0 0 0 0 0 0 0 0 0 0 0 0 0 0 0 0 0 0 0 0 0 0 0 0 0 0 0 0 0
3 3 3 3 2 1 0 0 0 0 0 0 0 0 0 0 0 0 0 0 0 0 0 0 0 0 0 0 0 0 0 0 0 0 0 0 0 0 0 0 0 0 0
3 3 3 3 2 1 0 0 0 0 0 0 0 0 0 0 0 0 0 0 0 0 0 0 0 0 0 0 0 0 0 0 0 0 0 0 0 0 0 0 0 0 0
3 3 3 3 2 1 0 0 0 0 0 0 0 0 0 0 0 0 0 0 0 0 0 0 0 0 0 0 0 0 0 0 0 0 0 0 0 0 0 0 0 0 0
Wind_Speed
4 4 4 6 6 7 8 8 8 8 8 9 9 9 10 10 10 9 10 9 9 9 10 10 11 11 11 12 12 12 13 13 13 13 12 11 12 13 13 12 10 8 14
3 3 4 5 6 7 8 8 8 8 8 8 8 9 9 9 9 9 9 9 9 9 9 9 10 10 10 10 10 11 11 12 12 11 10 9 10 11 12 11 10 8 13
3 3 3 5 7 8 9 9 8 8 7 8 8 8 8 8 8 9 9 9 9 9 9 9 9 10 10 10 9 9 10 11 10 9 8 5 6 10 11 10 10 12 13
3 3 3 5 7 8 9 9 9 8 7 8 8 8 8 8 8 8 8 9 9 9 9 9 9 9 9 9 8 8 9 9 9 7 4 3 3 8 10 10 10 11 12
4 4 3 6 7 8 8 8 8 9 8 7 7 7 7 7 7 8 8 9 9 8 8 8 8 7 7 7 7 8 8 8 8 6 3 3 3 7 9 9 10 10 11
5 5 5 7 7 8 8 9 9 9 8 8 8 7 7 7 7 7 8 8 8 8 8 7 7 7 7 6 7 7 8 8 6 3 3 2 2 6 8 9 9 10 10
5 6 6 8 9 9 8 8 9 9 9 8 8 8 7 7 6 7 7 7 7 7 7 6 6 6 6 6 6 7 7 6 4 3 2 2 3 6 8 8 9 9 10
6 6 6 8 9 9 9 9 9 9 9 8 8 8 8 7 6 7 6 6 6 6 6 5 5 5 5 5 5 6 6 5 4 3 2 1 3 6 7 8 8 9 10
7 7 7 6 6 8 9 9 9 9 8 8 8 8 8 8 7 7 6 6 5 5 4 4 4 4 4 4 5 5 5 5 3 1 1 1 3 5 6 7 7 8 9
7 7 7 7 6 5 5 8 9 9 9 8 8 9 8 7 7 7 6 6 6 5 4 4 4 4 4 4 4 5 4 3 2 1 1 1 2 4 5 6 7 7 8
9 8 8 8 7 6 5 7 7 8 8 7 6 8 7 4 4 4 5 6 6 5 5 4 4 4 4 3 4 4 3 1 1 1 0 1 3 4 5 6 6 7 8
8 8 7 8 8 7 5 4 4 4 4 4 4 4 3 3 3 4 5 5 6 5 5 5 5 4 3 2 3 3 1 1 1 0 0 1 3 4 5 5 6 6 7
5 6 7 7 7 7 5 4 3 3 3 4 5 5 3 3 2 3 2 3 3 4 3 4 4 3 2 2 1 1 1 1 1 1 0 1 2 3 4 5 6 6 6
5 6 7 7 6 6 5 4 3 3 2 3 3 4 3 2 2 2 2 2 2 1 2 2 2 3 3 2 1 1 1 1 1 1 0 1 2 3 4 4 5 6 6
5 6 6 6 7 6 5 4 4 3 3 3 3 3 3 2 2 2 1 1 1 1 1 1 2 2 2 2 2 1 0 0 0 0 1 1 1 2 3 4 4 5 6
5 5 5 6 6 6 5 4 3 3 3 2 2 3 3 2 2 2 2 2 1 1 1 1 1 1 2 2 2 1 1 0 0 0 0 1 1 1 2 4 4 4 5
4 5 6 5 6 6 5 5 4 3 3 3 3 3 3 3 3 2 2 2 2 2 1 1 1 1 1 2 2 2 1 0 0 0 0 0 1 1 1 3 4 4 5
4 5 6 6 6 6 5 4 4 3 3 3 3 3 4 4 3 2 2 2 3 2 1 1 1 1 2 1 1 2 1 1 1 1 0 0 0 1 1 2 2 3 4
4 4 6 6 6 6 5 4 4 4 3 2 2 3 4 4 4 2 2 2 2 1 1 1 1 1 1 1 1 1 1 1 1 1 1 1 1 1 1 1 3 3 3
4 4 5 5 6 6 4 4 3 4 4 3 3 3 4 4 4 3 2 2 2 1 2 2 2 1 0 1 1 2 2 2 1 1 1 1 1 1 1 1 1 2 3
5 5 5 5 6 5 4 4 4 4 4 3 3 4 4 4 4 3 3 3 2 1 1 1 1 1 1 1 1 2 2 2 1 1 1 0 0 0 0 1 1 1 1
4 5 5 5 5 4 4 3 2 3 3 3 3 4 4 4 4 4 3 2 2 2 2 2 1 1 1 1 0 0 1 2 2 2 1 1 1 1 1 1 1 1 1
4 4 5 5 5 5 5 3 4 3 3 3 4 4 4 4 4 4 4 3 2 2 1 2 1 0 1 2 1 1 1 2 2 2 2 1 1 1 1 1 1 1 2
3 3 4 4 4 4 4 3 4 4 4 4 4 4 5 4 4 4 4 3 2 2 2 2 2 1 1 2 2 2 2 1 1 2 2 2 2 2 2 2 2 2 2
2 2 3 4 4 4 4 4 3 3 3 4 4 5 5 4 4 4 4 4 3 2 3 3 2 2 2 2 2 2 2 2 1 2 3 3 3 2 2 2 2 2 2
2 2 3 4 5 5 5 4 4 4 5 6 6 5 5 4 4 5 5 4 4 3 3 3 3 3 3 3 2 2 2 2 2 2 3 3 3 3 3 2 2 2 2
Wind_Direction
326 327 8 20 36 50 58 61 64 67 71 75 76 75 73 74 75 76 75 74 75 76 75 74 72 73 73 74 75 77 76 75 74 73 71 74 81 85 85 83 81 82 91
323 333 19 23 41 51 56 60 61 66 70 74 80 78 75 75 76 75 74 73 74 76 76 76 74 72 71 71 74 78 79 77 74 69 64 64 75 84 87 87 87 91 93
11 2 26 30 43 49 54 56 57 62 68 72 79 80 78 77 75 74 71 71 73 74 74 75 76 72 70 69 71 76 80 78 74 66 62 55 72 85 92 91 90 94 96
24 20 28 35 46 51 53 53 54 58 64 70 74 77 79 78 78 76 70 68 70 72 72 73 74 73 70 68 69 74 77 78 71 64 58 49 67 91 98 98 96 98 100
29 23 27 43 49 53 53 52 53 55 58 64 70 74 75 77 79 77 73 68 66 68 72 71 73 73 70 67 69 73 74 73 69 58 51 50 60 93 102 104 104 104 103
29 22 30 42 46 53 52 49 51 52 52 59 67 67 68 68 75 78 75 71 67 68 69 68 69 70 68 65 65 67 72 72 68 53 51 51 67 94 103 108 110 109 108
30 23 28 37 42 48 50 50 48 48 50 55 61 62 64 65 70 74 71 72 72 71 70 67 64 67 67 65 63 65 67 69 72 63 62 58 79 96 104 107 110 114 113
37 24 26 32 34 37 43 45 46 46 50 52 55 58 57 61 66 70 69 70 77 75 69 67 65 62 65 64 61 59 55 64 76 72 68 76 98 107 111 111 112 115 118
39 30 17 15 23 32 35 37 40 39 43 46 46 47 50 51 57 63 63 66 69 71 68 62 62 56 54 57 56 53 51 54 69 70 75 67 95 113 121 120 119 120 120
35 28 19 14 14 14 20 31 32 34 35 39 41 40 42 43 44 50 49 50 54 55 57 55 59 54 44 48 53 49 45 42 58 59 49 91 114 122 128 130 129 128 126
29 22 18 12 10 6 13 25 26 31 32 37 37 37 38 27 27 35 34 41 42 43 39 41 44 42 34 35 40 39 33 39 61 47 57 132 144 142 139 138 139 138 134
21 15 15 12 9 5 10 15 16 23 18 20 21 26 26 19 19 32 29 34 36 35 34 33 29 30 29 15 17 24 29 35 38 332 179 135 155 157 151 148 146 141 139
21 17 11 9 9 10 4 11 12 12 10 12 17 18 18 20 20 26 25 22 25 32 25 17 15 9 8 3 360 9 21 36 12 309 255 141 159 159 159 154 154 152 150
26 17 10 8 11 8 4 4 13 13 7 9 10 18 25 21 13 12 17 6 13 14 11 8 1 353 358 355 353 11 22 21 22 344 325 135 157 156 158 156 158 159 159
27 15 10 10 13 7 6 3 12 6 2 3 6 13 20 22 10 358 2 357 360 9 7 350 354 351 351 349 349 7 13 349 33 16 349 55 139 161 167 165 167 170 170
20 10 7 16 14 9 9 4 356 354 353 3 3 4 12 16 9 354 353 347 340 351 340 327 332 342 334 342 345 345 321 303 88 65 4 22 23 184 181 182 181 183 183
14 14 10 17 18 14 8 4 358 349 357 7 358 358 7 11 8 358 350 350 337 336 337 339 350 3 352 353 342 331 311 296 216 181 155 9 337 313 225 203 194 195 196
23 19 13 16 14 11 10 360 356 352 0 6 358 356 3 6 4 2 353 347 336 342 349 334 5 15 5 351 334 321 319 291 232 201 185 202 256 299 261 223 216 210 209
28 26 19 14 13 7 5 0 358 354 3 1 2 0 358 358 357 355 343 337 335 352 1 343 356 22 360 349 329 323 318 296 252 221 212 209 217 229 247 240 230 220 216
25 32 25 18 13 7 5 2 1 1 358 0 2 2 360 356 353 350 341 344 351 4 358 3 354 348 337 344 346 342 322 305 298 250 241 243 230 225 229 230 235 235 219
25 24 24 20 12 13 9 2 354 350 342 348 352 356 356 355 352 349 342 342 348 351 335 349 5 355 347 358 27 347 333 322 304 298 275 253 266 279 278 250 236 229 234
22 15 15 14 10 11 4 349 325 320 320 332 337 342 350 350 346 347 342 332 327 331 342 347 5 349 313 332 39 4 327 327 331 304 273 232 248 270 274 264 260 219 201
16 5 6 1 4 2 -0 358 351 352 341 353 348 342 343 336 335 332 329 324 323 318 298 294 296 307 283 288 265 192 188 237 312 313 310 296 287 281 270 263 251 249 215
355 355 359 358 360 358 1 9 9 0 340 327 326 326 328 330 326 324 324 320 312 308 300 283 297 292 258 276 290 278 252 201 206 282 309 318 315 287 270 261 257 243 223
346 354 352 357 359 358 360 3 2 349 329 320 328 331 328 327 325 320 316 315 307 300 295 291 284 280 265 258 265 281 286 279 239 227 266 296 315 304 292 268 253 248 228
353 359 0 2 358 357 358 356 354 340 334 334 334 329 326 326 324 325 317 309 302 294 288 282 275 268 263 260 260 261 254 245 234 229 248 271 282 289 292 275 254 252 238